User: anonymous   Login
Location: Brompton
(51.4000°N, 0.5333°E)
Time: 06:48:40
(UTC+00:00)
Language:

Cosmos 1908 Rocket - Orbit

View from above orbital plane
View from above orbital plane
View from above satellite
View from above satellite

Ground track
Ground track

The orbit data is extracted from the following two-line orbital elements,

1 18749U 88001B   21216.27811576  .00000073  00000-0  59895-5 0  9996
2 18749  82.5165 330.7544 0019266  22.3205   5.4402 14.83268492793069
Epoch (UTC): 04 August 2021 06:40:29
Eccentricity: 0.0019266
inclination: 82.5165°
perigee height: 605 km
apogee height: 632 km
right ascension of ascending node: 330.7544°
argument of perigee: 22.3205°
revolutions per day: 14.83268492
mean anomaly at epoch: 5.4402°
orbit number at epoch: 79306

The dashed part of the orbit path shows where the satellite is in the earth's shadow,  

DLR